Date,TemperatureHighF,TemperatureAvgF,TemperatureLowF,DewpointHighF,DewpointAvgF,DewpointLowF,HumidityHigh,HumidityAvg,HumidityLow,PressureMaxIn,PressureMinIn,WindSpeedMaxMPH,WindSpeedAvgMPH,GustSpeedMaxMPH,PrecipitationSumIn
2013-3-1,56.8,53.6,50.7,50.4,49.0,46.9,93,85,77,30.36,30.29,19,4,19,0.02
2013-3-2,57.4,48.8,36.7,48.4,42.9,34.5,93,81,67,30.29,30.07,18,3,18,0.37
2013-3-3,48.0,38.5,28.9,42.4,35.5,26.9,94,89,72,30.34,30.21,9,0,9,0.16
2013-3-4,60.4,39.7,25.0,42.6,30.4,23.2,95,73,39,30.34,29.96,0,0,0,0.00
2013-3-5,60.1,44.8,35.2,36.9,32.6,27.2,83,64,42,29.97,29.75,0,0,0,0.00
2013-3-6,45.0,39.4,33.4,41.7,36.6,30.2,92,90,83,29.93,29.60,0,0,0,0.51
2013-3-7,50.2,40.8,31.8,44.7,37.8,29.8,92,89,80,30.13,29.93,0,0,0,0.35
2013-3-8,57.6,39.6,27.3,47.9,34.1,25.8,95,82,59,30.27,30.11,0,0,0,0.02
2013-3-9,61.0,41.2,26.6,46.6,33.9,24.4,95,78,48,30.52,30.27,0,0,0,0.00
2013-3-10,52.3,42.0,31.3,44.7,37.1,28.8,94,83,67,30.53,30.45,0,0,0,0.00
2013-3-11,61.7,46.6,31.1,45.5,38.6,29.1,94,76,46,30.48,30.18,0,0,0,0.00
2013-3-12,51.4,49.4,46.0,48.1,46.4,41.2,94,89,83,30.18,30.07,12,2,12,0.81
2013-3-13,53.8,51.1,49.6,50.6,48.6,47.5,94,91,86,30.23,30.10,14,1,14,0.41
2013-3-14,55.2,50.1,47.1,51.8,47.6,43.8,96,91,83,30.17,30.05,12,1,12,0.10
2013-3-15,63.5,52.7,46.9,53.2,47.7,44.1,94,84,64,30.23,30.14,10,1,10,0.06
2013-3-16,51.4,44.4,36.3,45.4,41.1,33.9,93,88,76,30.15,29.89,20,2,20,0.51
2013-3-17,52.2,41.9,35.2,43.4,35.9,31.7,94,81,59,30.22,29.99,11,1,11,0.10
2013-3-18,52.7,41.7,32.4,42.6,34.0,28.4,93,76,42,30.29,30.14,25,1,25,0.41
2013-3-19,59.9,41.4,29.5,44.9,33.0,27.2,94,75,40,30.28,29.62,17,1,17,0.06
2013-3-20,56.8,45.9,34.3,47.6,40.8,31.1,92,83,61,30.04,29.41,30,4,30,0.76
2013-3-21,51.1,39.4,34.3,43.6,35.2,32.2,93,86,68,30.23,30.04,9,1,9,0.20
2013-3-22,51.1,37.3,28.0,40.8,32.5,25.5,92,83,62,30.42,30.22,6,0,8,0.23
2013-3-23,61.0,39.6,27.1,41.1,29.8,25.0,94,72,36,30.45,30.33,8,0,8,0.00
2013-3-24,62.4,42.1,26.4,39.5,30.4,24.1,93,68,31,30.35,30.14,10,1,10,0.00
2013-3-25,70.3,46.5,27.3,41.8,31.7,24.7,92,62,28,30.18,29.95,9,1,9,0.00
2013-3-26,71.2,48.5,32.5,46.2,36.0,29.1,90,66,36,30.04,29.98,8,1,8,0.00
2013-3-27,63.0,49.3,38.1,46.7,40.7,34.8,91,74,53,30.03,29.96,5,0,5,0.00
2013-3-28,69.6,51.9,36.3,51.5,42.6,33.3,93,73,46,30.17,30.02,9,0,9,0.02
2013-3-29,73.4,52.4,35.8,53.0,42.4,33.6,94,72,42,30.28,30.17,3,0,3,0.00
2013-3-30,72.0,51.3,32.7,51.2,40.9,30.6,94,71,37,30.30,30.10,12,1,12,0.00
2013-3-31,65.7,39.8,33.4,53.1,36.7,31.2,93,89,60,30.11,30.04,0,0,0,0.00